Wind_Speed
26 28 29 29 29 30 30 29 30 30 30 29 29 29 30 31 32 33 34 35 37 38 39 40 41 41 42 42 42 42 41 40 39 38 38 38 38 38
26 27 28 29 28 29 28 28 28 28 28 27 28 29 29 30 32 33 35 36 37 38 39 39 40 40 41 40 40 38 37 36 36 36 36 35 35 35
25 25 26 27 27 26 26 25 25 26 27 27 28 29 29 31 33 34 35 36 37 37 38 38 39 39 38 37 35 35 34 34 33 33 33 32 32 32
24 24 24 25 24 24 25 25 25 26 27 28 29 30 31 33 34 35 36 36 37 38 38 38 37 36 35 33 33 32 31 31 30 30 30 30 30 29
24 23 23 23 23 24 25 25 26 27 28 29 30 32 33 34 35 36 36 37 37 37 36 36 34 33 32 31 30 30 29 29 28 28 28 28 27 27
23 22 23 23 24 25 26 26 27 28 29 30 31 32 34 34 35 35 35 35 35 35 34 33 31 30 29 28 28 27 27 26 26 26 26 26 25 25
23 23 23 24 25 26 27 28 28 29 30 31 32 32 33 33 33 34 34 33 33 32 31 29 28 26 26 26 25 24 24 23 23 23 23 22 22 21
23 23 24 25 26 27 28 28 29 29 30 31 31 32 32 32 31 31 31 30 29 28 27 26 24 24 23 23 22 22 21 20 20 20 20 20 19 19
23 24 25 26 26 27 28 28 29 29 30 30 30 30 30 30 29 28 28 26 25 24 23 22 22 21 21 21 20 19 18 18 18 18 17 17 17 17
22 23 24 25 26 27 28 28 28 28 28 28 28 28 27 26 25 25 24 23 22 21 21 21 20 19 19 18 17 16 16 16 16 16 16 15 15 16
22 23 24 25 26 27 27 27 27 26 26 26 26 25 24 24 23 22 21 21 20 20 19 19 18 17 16 15 15 14 14 14 14 14 14 14 15 15
22 23 24 25 25 26 25 25 24 24 23 23 23 23 22 22 21 20 20 19 19 18 17 16 15 15 14 14 13 13 13 13 13 13 13 13 14 15
21 22 23 24 24 23 22 21 21 21 21 21 21 21 20 20 19 19 18 17 17 16 15 14 13 13 12 12 12 12 11 11 11 12 12 13 14 14
19 19 20 20 20 19 19 19 19 20 19 19 19 18 18 18 17 16 16 16 15 14 13 12 11 11 10 11 11 10 10 10 10 11 12 13 13 14
17 17 17 17 17 17 18 18 18 18 17 17 17 17 17 16 15 14 14 14 13 12 11 10 9 9 9 10 9 9 9 9 10 11 12 12 14 15
14 14 14 15 15 15 15 15 15 15 15 15 15 15 14 14 13 12 12 12 10 9 8 7 7 8 8 8 8 8 8 9 9 11 11 13 14 15
12 12 12 12 12 12 13 13 13 13 13 13 13 13 12 12 11 10 10 9 8 7 6 6 6 7 7 7 7 8 8 9 10 11 12 13 14 15
9 9 10 10 10 11 11 12 12 11 11 12 11 11 10 9 8 8 7 7 6 6 5 5 5 6 6 6 7 8 8 9 10 11 13 14 14 15
8 8 8 8 9 9 9 10 10 10 9 9 9 8 8 7 6 5 5 5 5 4 4 4 5 5 6 7 8 8 9 10 10 11 12 13 14 15
6 6 6 7 7 7 7 7 7 7 7 7 7 6 6 5 5 4 5 4 4 4 4 5 5 6 6 7 8 9 9 10 11 12 13 14 14 15
6 6 6 6 6 6 6 6 6 6 6 6 6 5 5 5 5 5 5 4 4 4 5 5 6 6 7 8 9 9 10 10 11 12 13 14 15 16
7 7 7 7 7 7 7 7 7 6 6 6 6 6 6 6 6 5 5 5 5 5 6 6 6 7 8 9 9 10 11 12 12 13 13 14 15 16
10 10 9 9 9 9 9 9 8 8 8 8 8 7 7 7 7 6 6 6 6 7 7 7 7 8 9 10 11 11 12 13 13 13 14 14 15 16
Wind_Direction
243 247 251 255 258 260 262 265 265 268 271 274 277 279 282 284 285 286 288 289 291 292 293 295 296 296 297 298 298 298 298 298 299 299 299 299 300 300
246 249 252 254 256 259 261 263 266 269 273 276 277 281 283 285 286 288 289 291 292 294 296 297 298 298 298 298 299 299 299 300 301 301 302 302 303 302
250 252 254 256 255 258 262 264 267 271 275 277 279 282 284 286 288 289 291 292 294 296 298 298 299 299 299 299 300 300 301 302 302 303 304 305 306 306
249 252 255 256 256 259 264 268 271 274 276 279 282 283 286 288 289 290 292 293 295 296 297 298 299 299 299 299 300 302 303 304 304 305 306 307 309 310
251 255 257 256 259 263 268 271 273 276 279 281 282 284 286 289 290 291 293 295 296 297 298 299 299 299 299 300 301 303 303 305 306 307 309 310 312 313
253 255 256 258 263 267 270 273 275 278 280 282 284 286 288 290 291 292 294 295 297 299 299 299 298 298 299 300 302 303 305 306 308 310 312 313 316 317
254 257 260 264 266 269 272 274 277 279 281 283 285 288 289 290 291 293 295 297 298 299 299 298 298 299 300 302 303 305 307 308 311 313 315 318 321 323
257 259 263 268 269 271 274 276 278 280 282 285 287 288 289 291 292 295 296 298 299 299 298 298 299 300 302 304 306 307 308 310 313 317 320 323 326 328
259 262 264 268 270 273 275 278 280 282 284 286 287 289 291 292 294 296 298 298 299 299 298 299 300 302 304 306 308 309 310 313 317 322 325 327 331 335
262 264 268 270 272 274 277 279 281 283 285 286 288 291 292 293 294 296 297 298 298 299 299 300 302 304 306 307 309 310 313 316 321 326 330 334 339 341
266 269 270 273 274 276 278 279 281 283 285 288 290 291 292 293 294 296 297 297 299 299 299 301 303 305 307 308 311 314 317 320 325 331 335 340 343 345
269 272 273 275 278 281 282 282 283 286 288 291 292 292 292 293 294 295 296 297 298 299 299 300 302 305 307 309 313 317 320 324 329 335 340 343 345 347
272 274 276 278 280 282 283 285 287 290 292 294 294 293 293 294 295 295 296 297 298 298 298 299 302 305 309 313 317 320 323 328 333 337 341 343 345 347
275 278 281 282 283 283 286 289 291 294 294 294 295 295 295 295 295 295 296 297 299 299 299 300 304 309 313 318 322 325 328 332 335 339 342 345 346 347
277 280 282 285 286 288 290 291 294 295 294 294 296 297 298 297 296 297 298 299 300 301 300 302 305 309 316 322 325 329 331 333 336 340 343 345 345 346
284 286 288 289 289 290 291 293 296 296 296 297 299 300 299 298 299 300 302 305 304 304 305 306 309 315 322 327 330 332 334 335 338 341 342 344 345 346
289 292 293 294 295 296 297 299 299 299 299 300 301 302 301 301 302 303 306 308 311 312 312 313 317 324 331 336 339 339 340 340 341 342 343 344 345 347
294 298 301 302 302 303 304 305 305 305 305 306 307 307 308 308 308 310 314 317 320 320 321 325 330 336 340 344 343 342 342 342 342 342 343 345 347 350
307 308 308 309 310 311 312 313 314 314 314 314 315 317 319 320 320 323 328 329 329 331 338 344 346 345 344 344 345 344 344 344 343 344 346 348 350 352
331 330 329 328 327 326 327 328 329 330 330 330 333 336 339 342 343 344 346 348 351 355 356 355 352 348 346 346 346 345 344 344 344 345 347 348 350 351
14 9 4 360 357 355 353 351 350 350 352 354 357 2 7 9 9 10 11 12 9 5 359 356 353 351 349 347 346 345 345 344 345 345 346 347 348 350
34 29 26 25 23 21 19 17 18 20 23 25 28 30 30 29 28 27 27 23 15 6 0 357 355 352 349 346 345 344 343 343 343 343 343 344 345 347
47 46 45 44 43 42 41 41 41 42 43 43 43 42 41 37 34 31 27 19 11 5 1 357 353 349 347 345 342 341 340 340 340 339 340 341 342 344
Height
5799 5801 5803 5803 5804 5805 5805 5805 5805 5804 5803 5802 5802 5800 5799 5797 5796 5793 5791 5788 5785 5782 5779 5775 5771 5767 5763 5758 5754 5750 5745 5741 5737 5733 5728 5724 5719 5714
5793 5794 5796 5797 5797 5798 5798 5798 5798 5798 5797 5795 5794 5793 5791 5790 5787 5785 5782 5780 5777 5773 5769 5765 5761 5757 5753 5749 5744 5740 5736 5732 5728 5724 5719 5715 5710 5705
5786 5788 5789 5790 5790 5791 5791 5791 5791 5790 5789 5788 5787 5785 5783 5781 5779 5776 5774 5771 5767 5764 5760 5756 5752 5748 5744 5740 5736 5732 5728 5724 5720 5715 5711 5707 5702 5698
5780 5781 5782 5783 5784 5784 5784 5784 5784 5783 5782 5781 5779 5777 5775 5773 5770 5768 5765 5762 5758 5755 5751 5747 5743 5739 5735 5732 5728 5724 5720 5716 5712 5708 5704 5700 5695 5690
5774 5776 5776 5777 5778 5778 5778 5778 5777 5776 5775 5773 5772 5769 5767 5765 5762 5759 5756 5753 5749 5746 5742 5738 5735 5731 5728 5724 5720 5717 5713 5710 5706 5702 5697 5693 5689 5684
5769 5770 5770 5771 5771 5771 5771 5770 5770 5768 5767 5765 5763 5761 5759 5756 5753 5750 5747 5744 5741 5737 5734 5730 5727 5724 5720 5717 5714 5711 5707 5703 5699 5696 5692 5688 5683 5679
5763 5763 5764 5764 5764 5764 5764 5763 5762 5761 5759 5757 5755 5753 5750 5748 5745 5742 5739 5736 5732 5729 5726 5723 5720 5717 5714 5711 5708 5704 5701 5698 5694 5691 5687 5683 5679 5674
5756 5757 5758 5758 5758 5757 5756 5755 5754 5753 5751 5749 5747 5745 5742 5740 5737 5734 5731 5728 5725 5722 5719 5716 5714 5711 5708 5705 5702 5699 5696 5693 5690 5686 5683 5679 5675 5671
5750 5751 5751 5751 5751 5750 5749 5748 5747 5745 5744 5742 5740 5737 5735 5732 5730 5727 5724 5721 5719 5716 5713 5711 5708 5706 5703 5700 5697 5694 5692 5689 5686 5683 5679 5675 5672 5668
5744 5744 5744 5744 5743 5743 5742 5741 5739 5738 5736 5734 5732 5730 5727 5725 5723 5721 5718 5715 5713 5711 5708 5706 5703 5701 5698 5695 5693 5690 5688 5685 5682 5679 5676 5673 5669 5666
5738 5738 5738 5738 5737 5736 5735 5733 5732 5730 5729 5727 5725 5723 5720 5718 5716 5715 5712 5710 5708 5706 5703 5701 5699 5696 5694 5692 5689 5687 5684 5682 5679 5677 5674 5670 5667 5664
5732 5732 5732 5731 5730 5729 5728 5726 5725 5724 5722 5720 5718 5716 5714 5713 5711 5709 5707 5705 5703 5701 5699 5697 5695 5693 5691 5689 5686 5684 5682 5679 5677 5674 5672 5669 5666 5662
5726 5726 5725 5724 5723 5722 5721 5720 5719 5718 5716 5714 5712 5711 5709 5707 5705 5704 5702 5700 5698 5696 5695 5693 5691 5689 5687 5685 5683 5681 5679 5677 5674 5672 5670 5667 5664 5661
5720 5720 5719 5718 5718 5717 5716 5715 5714 5712 5711 5709 5708 5706 5704 5703 5701 5699 5698 5696 5694 5693 5691 5689 5688 5686 5684 5682 5681 5679 5677 5675 5673 5670 5668 5665 5663 5660
5715 5715 5714 5714 5713 5712 5711 5710 5709 5708 5706 5705 5703 5702 5700 5698 5697 5695 5694 5692 5690 5689 5687 5686 5685 5683 5682 5680 5678 5677 5675 5673 5671 5669 5666 5664 5661 5658
5711 5711 5710 5710 5709 5708 5707 5706 5705 5704 5702 5701 5699 5698 5696 5695 5693 5692 5690 5689 5687 5686 5685 5684 5682 5681 5680 5678 5676 5675 5673 5672 5670 5668 5665 5663 5660 5656
5708 5708 5707 5706 5705 5704 5703 5702 5701 5700 5699 5697 5696 5694 5693 5691 5690 5689 5688 5686 5685 5684 5683 5682 5680 5679 5678 5677 5675 5674 5672 5670 5668 5666 5664 5661 5658 5655
5706 5705 5704 5703 5703 5702 5700 5699 5698 5697 5695 5694 5693 5691 5690 5689 5687 5686 5685 5684 5683 5682 5681 5680 5679 5678 5677 5676 5674 5673 5671 5669 5667 5665 5662 5659 5657 5653
5704 5703 5702 5701 5700 5699 5698 5697 5695 5694 5693 5691 5690 5689 5688 5686 5685 5684 5683 5682 5681 5680 5680 5679 5678 5677 5676 5675 5673 5672 5670 5668 5666 5663 5661 5658 5655 5652
5702 5701 5700 5699 5698 5697 5696 5695 5693 5692 5691 5690 5688 5687 5686 5685 5684 5683 5682 5681 5681 5680 5679 5678 5677 5676 5675 5674 5672 5671 5668 5666 5664 5662 5659 5656 5654 5651
5701 5701 5700 5699 5697 5696 5695 5694 5693 5691 5690 5689 5688 5687 5686 5685 5684 5683 5682 5681 5681 5680 5679 5678 5677 5675 5674 5673 5671 5669 5667 5665 5663 5660 5658 5655 5652 5649
5702 5701 5700 5698 5697 5696 5695 5693 5692 5691 5690 5689 5688 5687 5686 5685 5684 5683 5682 5682 5681 5680 5679 5677 5676 5675 5673 5672 5670 5668 5666 5664 5661 5659 5656 5654 5651 5647
5703 5702 5700 5699 5698 5697 5696 5694 5693 5692 5691 5690 5689 5688 5687 5686 5685 5684 5683 5682 5681 5680 5679 5677 5676 5674 5672 5671 5669 5666 5664 5662 5659 5657 5654 5651 5649 5645